www.pogodaiklimat.ru

Погода и климат >> Архив погоды >> Россия >> Красноярский край >> Агинское


ПОГОДА в Агинском

  • Прогноз погоды в Агинском
  • Монитор погоды в Агинском

АРХИВ ПОГОДЫ в Агинском

Время (UTC), дата Ветер
(напр.,м/с)
 
Видим.   Явления Облачность Т
(С)
Тd
(С)
f
(%)
Тe
(С)
Тes
(С)
Комфортность P
(гПа)
Po
(гПа)
Тmin
(С)
Tmax
(С)
R
(мм)
R24
(мм)
S
(см)
09 12.02 С 1 20 км 8/0
[Ci fib]
-14.1 -25.0 39 -17 -16 1033.5 988.0
12 12.02 штиль 0 20 км 4/0
[Ci fib]
-23.3 -27.4 69 -23 -23 1036.2 988.9 -13.7
15 12.02 С 1 20 км ясно -28.1 -31.2 75 -32 -32 опасность
обморожения
1038.1 989.8
18 12.02 С 1 20 км ясно -30.6 -34.0 72 -35 -35 опасность
обморожения
1039.1 990.3
21 12.02 С 1 20 км 10/0
[As op]
-28.5 -31.9 72 -32 -32 опасность
обморожения
1039.4 991.0
00 13.02 штиль 0 20 км 10/10 1200 м
[Sc]
-23.6 -26.8 75 -24 -24 1038.7 991.3 -30.9 9
03 13.02 штиль 0 20 км 10/0
[As op]
-19.0 -23.8 66 -19 -19 1038.4 991.8
06 13.02 Ю 1 20 км 3/0
[Ac lent]
-11.5 -21.3 44 -14 -11 1036.9 991.7
09 13.02 Ю 2 20 км 10/0
[Ac As Cs]
-9.5 -18.8 47 -14 -13 1036.0 991.1
12 13.02 штиль 0 20 км 10/3 1000 м
[Sc As op Cs]
-15.4 -19.7 70 -15 -15 1037.5 991.6 -9.0
15 13.02 штиль 0 20 км 10/0
[As op]
-15.3 -19.0 73 -15 -15 1037.6 991.7
18 13.02 С 1 20 км 10/10 1170 м
[Sc]
-16.4 -19.4 78 -19 -19 1037.5 991.4
21 13.02 штиль 0 20 км 10/10 1200 м
[Sc]
-16.9 -19.4 81 -17 -17 1037.5 991.4
00 14.02 штиль 0 20 км 10/10 1170 м
[Sc]
-18.3 -20.4 84 -18 -18 1037.8 991.4 -18.3 9
03 14.02 С 1 4000 м дымка 10/4 1000 м
[Sc Cs]
-17.1 -20.2 77 -20 -19 1038.4 992.2 -20.0
06 14.02 штиль 0 4000 м дымка 10/5 1000 м
[Sc Ac lent Cs]
-7.2 -15.7 51 -8 -6 1035.6 991.2
09 14.02 Ю 2 20 км 4/4
[Sc]
-5.4 -14.8 48 -9 -9 1034.8 990.7
12 14.02 штиль 0 20 км 10/10 870 м
[Cb cap]
-9.1 -14.0 68 -9 -9 1035.9 991.2 -3.6
15 14.02 штиль 0 20 км 10/0
[As op]
-11.0 -14.5 75 -11 -11 1035.9 990.8
18 14.02 штиль 0 20 км 10/10 1200 м
[Sc]
-11.9 -14.8 79 -12 -12 1036.1 990.9
21 14.02 С 1 20 км 10/10 1200 м
[Sc]
-17.5 -19.2 87 -20 -20 1036.9 990.7
00 15.02 штиль 0 20 км ясно -20.6 -22.9 82 -21 -21 1037.3 990.5 -20.6 9
03 15.02 С 1 20 км ясно -17.3 -19.9 80 -20 -18 1036.5 990.3 -22.5
06 15.02 штиль 0 20 км 3/0
[Cs]
-4.1 -13.8 47 -4 -0 1033.1 989.3
09 15.02 В 1 50 км 1/0
[Ac lent]
-2.8 -12.9 46 -4 -3 1032.1 988.6
12 15.02 штиль 0 20 км ясно -11.4 -15.0 75 -12 -12 1033.6 988.5 -2.4
15 15.02 С 1 20 км ясно -17.1 -19.0 85 -20 -20 1033.7 987.7
18 15.02 С 1 20 км ясно -19.6 -21.5 85 -23 -23 1033.1 986.7
21 15.02 С 1 20 км ясно -21.5 -23.7 82 -25 -25 1032.5 985.7
00 16.02 штиль 0 20 км ясно -23.5 -26.0 80 -24 -24 1031.3 984.3 -23.5 9
03 16.02 С 1 4000 м дымка 3/0
[Ci fib]
-18.2 -21.6 75 -21 -19 1029.5 983.4 -24.2
06 16.02 С 1 50 км 6/0
[Cs]
-6.3 -14.0 54 -8 -5 1025.1 981.2
09 16.02 штиль 0 50 км 8/0
[Cc]
-2.7 -13.2 44 -3 -2 1023.5 980.3
12 16.02 СВ 1 4000 м дымка 9/0 2000 м
[Ac lent Cs]
-9.4 -14.4 67 -12 -12 1024.2 979.9 0.0
15 16.02 штиль 0 4000 м дымка 10/0
[Cs]
-12.8 -15.8 78 -13 -13 1023.3 978.5
18 16.02 ЮЗ 3 20 км 10/5 1000 м
[Sc Cs]
-0.1 -15.6 30 -4 -4 1019.8 977.2
21 16.02 ЮЗ 2 20 км 4/4 1000 м
[Sc]
-1.3 -16.5 30 -4 -4 1019.7 976.9
00 17.02 З 2 20 км 3/3 1000 м
[Sc]
-2.9 -17.2 32 -6 -6 1019.6 976.6 -13.4 9
03 17.02 З 4-12
{12}
50 км 10/0 2000 м
[Ac lent Cs]
-0.3 -14.6 33 -5 -4 1019.3 976.7
06 17.02 З 3
{12}
50 км 10/5 1000 м
[Cu hum Ac lent Cs]
+2.1 -12.3 34 -1 -0 1017.6 975.4
09 17.02 З 2
{12}
50 км 10/0
[Cs]
+2.2 -11.2 36 0 +1 1015.9 973.7
12 17.02 штиль 0 20 км 5/0
[Ci fib]
-4.1 -11.2 58 -5 -5 1015.5 972.4 +2.5
15 17.02 С 1 4000 м дымка ясно -10.6 -13.8 77 -13 -13 1015.7 971.6
18 17.02 С 1 20 км 8/0
[Ci fib]
-14.3 -16.8 81 -17 -17 1015.3 970.6
21 17.02 С 2 20 км 8/0
[Ci fib]
-17.2 -19.3 84 -23 -23 1014.6 969.4
00 18.02 С 1 20 км 8/0
[Ci fib]
-19.1 -20.9 86 -22 -22 1014.2 968.7 -19.1 8
03 18.02 штиль 0 20 км 4/0
[Ci fib]
-12.8 -17.0 71 -13 -11 1013.4 969.1 -19.7
06 18.02 штиль 0 20 км 9/3 1000 м
[Sc Ci fib]
-2.0 -13.5 41 -2 +1 1009.7 967.2
09 18.02 Ю 1 50 км 9/5 1000 м
[Sc Ac lent]
+1.2 -11.9 37 0 +1 1008.4 966.4
12 18.02 штиль 0 20 км 10/0 2000 м
[As op]
-4.8 -10.5 64 -5 -5 1010.2 967.3 +3.6
15 18.02 В 1 20 км 8/0
[Cs]
-6.0 -11.3 66 -8 -8 1010.2 967.1
18 18.02 С 1 20 км 10/0
[Ci fib]
-5.6 -10.6 68 -8 -8 1010.4 967.3
21 18.02 СЗ 1 20 км 10/0
[Ci fib]
-4.6 -9.8 67 -7 -7 1011.7 968.7
00 19.02 Ю 1 20 км 10/4 1000 м
[Sc Ac As]
-2.0 -8.9 59 -4 -4 1012.9 970.3 -6.6 8
03 19.02 ЮЗ 2 20 км 8/4 1000 м
[Sc Ac As]
+4.1 -10.4 34 +2 +3 1013.7 972.0
06 19.02 З 5
{10}
20 км 4/3 1000 м
[Sc Ac lent]
+4.6 -10.0 34 +1 +2 1014.8 973.1

 

Местоположение метеостанции Агинское (Красноярский край, Россия): широта 55.25 долгота 94.88 высота над уровнем моря 337 м.

В архиве по умолчанию представлена погода в Агинском за последнюю неделю. Архивные данные за месяц целиком и за предыдущие месяцы, начиная с января 2011 года, Вы можете получить, выбрав интересующий диапазон дат из раскрывающегося списка и нажав кнопку "Ввод!".


*Определитесь, кто Вы:
робот инопланетянин человек

Внимание! Время в таблицах - всемирное. Для получения местного времени необходимо прибавить поправку, которая равна 7 ч.

Смотрите также архив погоды в соседних городах и на ближайших метеорологических станциях:

Погода в Ирбейском (Красноярский край, Россия) (56 км)
Погода в Уяре (Красноярский край, Россия) (70 км)
Погода в Шалинском (Красноярский край, Россия) (88 км)
Погода в Анастасино (Красноярский край, Россия) (96 км)
Погода в Солянке (Красноярский край, Россия) (105 км)
Погода в Канске (Красноярский край, Россия) (116 км)
Погода в Щетинкино (Красноярский край, Россия) (123 км)
Погода в Артемовске (Красноярский край, Россия) (126 км)
Погода в Железногорске (Красноярский край, Россия) (140 км)
Погода в Роевом Ручье (Красноярский край, Россия) (157 км)

Пояснения к столбцам:

Ветер - указаны скорость ветра в м/с - средняя за 10 мин, порывы в срок и между сроками (в фигурных скобках) и направление, откуда дует ветер: С - северный, СВ - северо-восточный, В - восточный, ЮВ - юго-восточный, Ю - южный, ЮЗ - юго-западный, З - западный, СЗ - северо-западный.
Видимость - горизонтальная дальность видимости в метрах или километрах. При видимости от 1 до 10 км при отсутствии осадков обычно наблюдается дымка, при ухудшении видимости до 1 км и менее - туман. В сухую погоду видимость может ухудшаться дымом, пылью или мглою.
Явления - указаны атмосферные явления, наблюдавшиеся в срок или в последний час перед сроком; фигурными скобками обозначены явления, наблюдавшиеся между сроками (за 1-3 часа до срока); квадратными скобками обозначены град или гололедные отложения с указанием их диаметра в мм.
Облачность - указаны через наклонную черту общая и нижняя облачность в баллах и высота нижней границы облаков в метрах; квадратными скобками обозначены формы облаков: Ci - перистые, Cs - перисто-слоистые, Cc - перисто-кучевые, Ac - высококучевые, As - высокослоистые, Sc - слоисто-кучевые, Ns - слоисто-дождевые, Cu - кучевые, Cb - кучево-дождевые. Подробнее классификацию облаков см. в Атласе облаков (PDF).
T - Температура воздуха - температура, измеренная на высоте 2 м над землей.
Td - Температура точки росы - температура, при понижении до которой содержащийся в воздухе водяной пар достигнет насыщения.
f - Относительная влажность воздуха - влажноcть воздуха, измеренная на высоте 2 м над землей.
Te - Эффективная температура - температура, которую ощущает одетый по сезону человек в тени. Характеристика душности погоды. При расчете учитывается влияние влажности воздуха и скорости ветра на теплоощущения человека.
Tes - Эффективная температура на солнце - температура, которую ощущает человек, с поправкой на солнечный нагрев. Характеристика знойности погоды. Зависит от высоты солнца над горизонтом, облачности и скорости ветра. Ночью, в пасмурную погоду, а также при ветре 12 м/с и более поправка равна нулю.
P - Атмосферное давление - приведенное к уровню моря атмосферное давление.
Po - Атмосферное давление - измеренное на уровне метеостанции атмосферное давление.
Tmin - Минимальная температура - минимум температуры воздуха на высоте 2 м над землей.
Tmax - Максимальная температура - максимум температуры воздуха на высоте 2 м над землей.
R - Количество осадков - Количество выпавших осадков за период времени, мм. При наведении курсора мыши на число - период времени, за который выпало указанное количество осадков.
R24 - Количество осадков - Количество выпавших осадков за 24 часа, мм.
S - Снежный покров - Высота снежного покрова, см. При наведении курсора мыши на число - состояние снежного покрова и степень покрытия местности в баллах.